Location: Poigny-la-Forêt
(48.6876°N, 1.7701°E)
Time: 20:39:32
(UTC+02:00)

ISS - Pass Details

Date: 29 March 2019
Orbit: 408 x 410 km, 51.6° (Epoch: 22 April)

Event Time Altitude Azimuth Distance (km) Brightness Sun altitude
Rises 21:39:26 0° 287° (WNW) 2,339 1.3 -22.4°
Reaches altitude 10° 21:41:33 10° 291° (WNW) 1,476 0.1 -22.7°
Enters shadow 21:44:07 45° 321° (NW) 573 -2.7 -23.0°
